Location: Peterborough
(44.3091°N, 78.3197°W)
Time: 05:40:15
(UTC-04:00)

A-11 Canister half - Pass Details

Date: 29 March 2023
Orbit: 1513 x 1686 km, 47.2° (Epoch: 04 June)

Event Time Altitude Azimuth Distance (km) Brightness Sun altitude
Rises 23:54:34 0° 265° (W) 4,830 11.8 -38.9°
Reaches altitude 10° 23:57:39 10° 267° (W) 3,866 11.3 -39.1°
Maximum altitude 00:07:39 77° 354° (N) 1,708 9.1 -39.9°
Enters shadow 00:07:47 77° 2° (N) 1,709 9.1 -39.9°
Exits shadow 00:21:02 - 83° (E) 4,928 11.6 -40.7°
Sets 00:21:04 0° 83° (E) 4,942 11.6 -40.7°
